This is the latest recevied weather packets stored in our database for station/object KI6PPU. If no packets are shown the sender has not sent any weather packets the latest 10 day(s).
| Time | Temp. | Humidity | Pressure | Rain* | Wind** | Luminosity | Snow |
|---|---|---|---|---|---|---|---|
| 1777997947 | 10.56° C | 98% | 1017.6 hPa | 0 mm | - | 215 W/m² | - |
| 1777997644 | 10.56° C | 98% | 1017.7 hPa | 0 mm | - | 180 W/m² | - |
| 1777997341 | 10.56° C | 98% | 1017.4 hPa | 0 mm | - | 171 W/m² | - |
| 1777997039 | 10.56° C | 98% | 1017.5 hPa | 0 mm | - | 144 W/m² | - |
| 1777996735 | 10.56° C | 98% | 1017.5 hPa | 0 mm | - | 114 W/m² | - |
| 1777996431 | 10° C | 98% | 1017.6 hPa | 0 mm | - | 111 W/m² | - |
| 1777996128 | 10.56° C | 99% | 1017.5 hPa | 0 mm | - | 95 W/m² | - |
| 1777995824 | 10.56° C | 99% | 1017.4 hPa | 0 mm | - | 83 W/m² | - |
| 1777995521 | 10.56° C | 99% | 1017.4 hPa | 0 mm | - | 76 W/m² | - |
| 1777995218 | 10.56° C | 99% | 1017.4 hPa | 0 mm | - | 76 W/m² | - |
| 1777994915 | 10.56° C | 99% | 1017.4 hPa | 0 mm | - | 73 W/m² | - |
| 1777994612 | 10.56° C | 99% | 1017.3 hPa | 0 mm | - | 82 W/m² | - |
| 1777994306 | 11.11° C | 99% | 1017.2 hPa | 0 mm | - | 70 W/m² | - |
| 1777994003 | 10.56° C | 99% | 1017.3 hPa | 0 mm | - | 50 W/m² | - |
| 1777993700 | 10.56° C | 99% | 1017.1 hPa | 0 mm | - | 53 W/m² | - |
| 1777993397 | 10.56° C | 99% | 1017.2 hPa | 0 mm | - | 59 W/m² | - |
| 1777993091 | 10.56° C | 99% | 1017.1 hPa | 0 mm | - | 69 W/m² | - |
| 1777992790 | 10.56° C | 99% | 1017.1 hPa | 0 mm | - | 73 W/m² | - |
| 1777992487 | 10.56° C | 99% | 1017 hPa | 0 mm | - | 77 W/m² | - |
| 1777992186 | 10.56° C | 99% | 1017.1 hPa | 0 mm | - | 71 W/m² | - |
| 1777991882 | 10.56° C | 99% | 1016.9 hPa | 0 mm | - | 70 W/m² | - |
| 1777991580 | 10.56° C | 99% | 1016.9 hPa | 0 mm | - | 51 W/m² | - |
| 1777991277 | 10.56° C | 99% | 1016.8 hPa | 0 mm | - | 57 W/m² | - |
| 1777990974 | 10.56° C | 99% | 1016.8 hPa | 0 mm | - | 39 W/m² | - |
| 1777990671 | 10.56° C | 99% | 1016.9 hPa | 0 mm | - | 29 W/m² | - |
* Rain latest hour (hover to see other rain measurements)
** Current wind speed in m/s (hover to see current wind gust speed)